SCP
0 0 0 0 0 0 0 0 0 0 0 0 0 0 0 0 0 0 0 0 0 0 0 0 0 0 0 0 0 0 0 0 0 0 0 0 0 0 0 0 0 0 0
0 0 0 0 0 0 0 0 0 0 0 0 0 0 0 0 0 0 0 0 0 0 0 0 0 0 0 0 0 0 0 0 0 0 0 0 0 0 0 0 0 0 0
0 0 0 0 0 0 0 0 0 0 0 0 0 0 0 0 0 0 0 0 0 0 0 0 0 0 0 0 0 0 0 0 0 0 0 0 0 0 0 0 0 0 0
0 0 0 0 0 0 0 0 0 0 0 0 0 0 0 0 0 0 0 0 0 0 0 0 0 0 0 0 0 0 0 0 0 0 0 0 0 0 0 0 0 0 0
0 0 0 0 0 0 0 0 0 0 0 0 0 0 0 0 0 0 0 0 0 0 0 0 0 0 0 0 0 0 0 0 0 0 0 0 0 0 0 0 0 0 0
0 0 0 0 0 0 0 0 0 0 0 0 0 0 0 0 0 0 0 0 0 0 0 0 0 0 0 0 0 0 0 0 0 0 0 0 0 0 0 0 0 0 0
0 0 0 0 0 0 0 0 0 0 0 0 0 0 0 0 0 0 0 0 0 0 0 0 0 0 0 0 0 0 0 0 0 0 0 0 0 0 0 0 0 0 0
0 0 0 0 0 0 0 0 0 0 0 0 0 0 0 0 0 0 0 0 0 0 0 0 0 0 0 0 0 0 0 0 0 0 0 0 0 0 0 0 0 0 0
0 0 0 0 1 1 1 0 0 0 0 0 0 0 0 0 0 0 0 0 0 0 0 0 0 0 0 0 0 0 0 0 0 0 0 0 0 0 0 0 0 0 0
1 0 0 1 1 1 1 1 1 0 0 0 0 0 0 0 0 0 0 0 0 0 0 0 0 0 0 0 0 0 0 0 0 0 0 0 0 0 0 0 0 0 0
1 0 0 1 1 1 1 1 1 1 1 0 0 0 0 0 0 0 0 0 0 0 0 0 0 0 0 0 0 0 0 0 0 0 0 0 0 0 0 0 0 0 0
1 1 0 0 1 1 1 1 1 1 1 1 1 0 0 0 0 0 0 0 0 0 0 0 0 0 0 0 0 0 0 0 0 0 0 0 0 0 0 0 0 0 0
1 1 1 1 0 0 1 1 1 1 1 1 1 1 1 0 0 0 0 0 0 0 0 0 0 0 0 0 0 0 0 0 0 0 0 0 0 0 0 0 0 0 0
1 1 1 1 0 0 0 1 1 1 2 2 1 1 1 1 1 0 0 0 0 0 0 0 0 0 0 0 0 0 0 0 0 0 0 0 0 0 0 0 0 0 0
1 1 1 0 0 0 0 1 1 1 1 2 2 1 1 1 1 1 0 0 0 0 0 0 0 0 0 0 0 0 0 0 0 0 0 0 0 0 0 0 0 0 0
1 1 1 0 0 0 0 0 1 1 1 2 2 2 1 1 1 1 0 0 0 0 0 0 0 0 0 0 0 0 0 0 0 0 0 0 0 0 0 0 0 0 0
1 1 1 1 0 0 0 0 0 1 1 2 2 2 2 1 1 1 1 1 1 0 0 0 0 0 0 0 0 0 0 0 0 0 0 0 0 0 0 0 0 0 0
2 1 1 1 1 0 0 0 0 1 1 1 2 2 2 2 2 1 1 1 1 1 0 0 0 0 0 0 0 0 0 0 0 0 0 0 0 0 0 0 0 0 0
2 1 1 1 1 1 0 0 0 0 1 1 2 2 2 2 2 2 2 1 1 1 1 0 0 0 0 0 0 0 0 0 0 0 0 0 0 0 0 0 0 0 0
1 1 1 1 1 1 1 0 0 0 0 1 2 2 2 2 2 2 2 2 1 1 1 0 0 0 0 0 0 0 0 0 0 0 0 0 0 0 0 0 0 0 0
1 1 1 1 1 1 1 0 0 0 0 1 1 2 2 2 2 2 1 1 1 1 1 1 0 0 0 0 0 0 0 0 0 0 0 0 0 0 0 0 0 0 0
1 1 1 1 1 0 0 0 0 0 0 0 1 1 2 1 1 1 1 0 1 1 1 1 1 0 0 0 0 0 0 0 0 0 0 0 0 0 0 0 0 0 0
1 1 1 1 0 0 0 0 0 0 0 0 0 1 1 1 0 0 0 0 0 0 0 0 0 0 0 0 0 0 0 0 0 0 0 0 0 0 0 0 0 0 0
1 1 1 0 0 0 0 0 0 0 0 0 0 0 0 0 0 0 0 0 0 0 0 0 0 0 0 0 0 0 0 0 0 0 0 0 0 0 0 0 0 0 0
1 1 1 0 0 0 0 0 0 0 0 0 0 0 0 0 0 0 0 0 0 0 0 0 0 0 0 0 0 0 0 0 0 0 0 0 0 0 0 0 0 0 0
1 1 1 0 0 0 0 0 0 0 0 0 0 0 0 0 0 0 0 0 0 0 0 0 0 0 0 0 0 0 0 0 0 0 0 0 0 0 0 0 0 0 0
Wind_Speed
6 6 5 5 5 5 5 5 5 6 6 6 6 6 7 7 7 6 4 5 8 10 11 12 12 12 12 11 11 11 11 11 10 10 10 11 11 11 11 12 12 12 12
7 6 6 6 6 6 6 6 7 6 5 5 6 7 7 8 7 7 7 6 8 10 12 12 12 12 12 12 12 11 11 11 11 10 10 10 11 11 12 12 12 12 13
9 7 6 6 6 6 7 6 7 6 5 6 7 8 7 7 8 8 8 7 6 8 10 12 12 12 12 13 13 12 12 12 11 11 10 10 11 11 12 12 13 13 13
10 8 7 7 7 6 6 6 6 6 6 6 6 6 6 6 8 9 8 8 7 6 6 9 11 12 12 12 12 12 12 12 12 11 10 10 11 11 12 12 12 13 13
10 9 7 7 7 6 6 6 6 6 6 7 6 6 7 7 8 8 9 9 8 7 6 5 7 9 11 12 13 13 12 12 12 11 10 10 11 11 12 12 12 12 13
10 9 8 9 8 7 7 7 8 7 6 6 5 6 7 8 8 8 9 8 7 7 7 7 6 6 9 11 12 12 12 12 12 11 11 11 11 11 11 11 12 12 12
9 9 8 8 8 8 8 9 7 8 7 5 5 6 7 8 8 7 7 6 7 7 7 7 6 5 4 7 10 12 12 12 12 12 11 11 11 11 12 12 12 13 13
9 8 10 8 8 8 9 9 8 6 5 5 5 4 5 5 5 5 6 6 6 5 6 7 7 6 5 4 4 7 10 11 12 12 12 12 12 12 12 12 13 13 13
9 9 9 9 8 9 8 9 9 10 7 6 7 6 5 5 3 4 5 5 6 5 5 5 6 6 6 5 5 5 7 9 11 11 11 12 12 12 12 13 13 13 13
8 8 8 9 9 8 8 8 8 8 9 7 6 7 7 5 5 4 4 4 5 6 5 4 5 5 5 4 4 5 5 6 7 9 10 10 11 12 12 13 13 13 13
7 8 8 8 8 7 8 8 8 8 8 8 6 5 7 7 8 7 8 6 5 5 5 5 4 4 4 4 4 4 4 5 6 6 7 8 9 10 11 12 12 12 13
5 7 7 7 7 7 8 8 8 9 8 9 8 6 6 6 6 7 8 8 7 5 5 4 4 3 3 3 3 4 4 5 5 6 7 8 9 9 10 11 11 11 12
5 6 6 6 6 7 7 7 7 8 8 9 8 7 7 7 6 7 8 8 8 6 5 4 3 3 3 3 3 3 4 4 5 6 6 7 8 8 9 10 10 11 12
4 4 5 5 6 6 6 6 5 6 6 7 8 8 6 6 6 6 6 6 7 6 6 5 3 2 2 2 3 4 3 3 5 6 6 7 8 8 8 9 10 10 11
2 2 3 3 4 5 5 6 5 6 6 6 6 7 6 5 5 5 5 5 6 7 7 4 3 2 2 2 3 4 4 3 4 5 6 7 7 7 8 8 9 9 10
3 3 2 3 3 3 4 4 5 5 6 6 5 6 6 5 5 5 5 5 6 7 7 4 3 2 2 2 3 4 4 5 5 5 6 7 7 7 8 8 9 9 10
3 3 3 3 3 3 3 3 4 5 6 6 6 6 7 6 5 5 5 5 5 6 8 6 4 3 4 4 3 4 4 5 4 4 6 6 7 7 7 8 9 9 10
4 3 3 3 3 3 3 4 4 5 5 6 6 6 7 5 6 5 5 6 6 6 6 8 5 4 4 4 5 5 4 4 4 4 5 6 6 7 8 8 9 9 9
4 4 3 3 3 3 3 4 4 4 5 6 6 6 6 6 6 5 5 5 5 5 5 6 5 4 3 3 4 4 5 4 4 4 5 6 7 7 8 9 9 9 9
4 4 4 4 3 3 3 3 4 4 4 4 5 5 6 6 6 5 4 5 5 5 5 5 5 4 3 3 3 3 4 4 4 4 4 5 6 6 7 8 8 8 9
4 4 4 4 3 3 3 3 3 4 4 4 3 3 4 4 4 4 4 5 5 4 4 4 5 4 3 2 3 3 5 4 4 2 3 4 4 4 5 6 6 8 9
4 4 4 4 4 3 3 4 4 4 4 4 4 3 3 2 2 3 4 4 4 5 5 5 5 5 4 4 3 3 4 3 4 1 4 5 3 4 4 4 6 8 8
5 5 4 4 4 5 5 5 4 4 4 3 3 3 2 1 2 2 2 3 3 3 4 5 6 5 5 4 4 4 4 4 5 3 3 5 3 5 4 4 7 9 9
4 4 4 5 5 4 5 4 4 3 3 3 3 3 3 2 1 1 2 2 2 3 3 4 4 4 3 3 3 4 4 4 4 2 2 4 3 4 5 5 6 8 9
4 4 4 4 5 5 5 4 3 3 2 3 3 3 3 3 1 2 2 2 2 2 2 2 2 2 3 3 2 1 2 2 3 2 1 3 3 4 5 4 4 7 8
4 4 4 4 4 4 5 4 4 2 3 3 2 2 2 2 2 2 3 3 3 2 1 1 2 3 3 3 3 2 2 2 2 3 1 2 3 3 4 3 4 4 5
Wind_Direction
208 207 209 210 213 215 216 221 224 228 234 240 243 248 253 257 260 260 258 236 249 262 269 272 273 273 272 270 269 270 270 269 268 266 265 263 264 265 266 267 267 268 268
213 212 212 214 218 220 223 227 230 233 237 240 246 248 253 257 256 257 261 252 237 250 260 266 269 272 273 274 273 271 271 270 270 269 267 265 264 264 265 266 268 270 270
217 215 217 218 221 222 225 230 233 236 241 243 248 250 252 255 258 258 260 264 257 238 244 257 263 268 272 274 275 274 274 273 272 271 267 265 266 266 267 266 266 267 270
218 217 221 223 224 223 223 226 230 233 238 244 251 253 251 254 257 260 261 259 259 258 243 241 255 263 268 272 273 274 274 275 275 274 271 269 268 269 270 269 268 268 270
219 220 224 226 224 223 224 225 229 233 242 246 250 258 260 261 262 261 259 258 256 256 259 245 240 253 263 268 270 272 273 274 276 275 274 272 272 272 273 273 273 273 273
220 222 226 227 222 224 227 226 231 233 242 250 256 263 265 264 261 259 257 254 252 251 252 258 254 243 244 259 266 268 269 272 273 274 275 275 274 274 275 276 276 275 275
221 223 226 226 221 223 227 228 229 234 236 236 250 264 263 255 254 252 250 251 249 248 249 252 255 259 251 244 254 262 267 270 272 273 274 274 274 274 274 274 276 278 278
222 222 226 227 222 224 227 227 225 229 230 218 231 254 270 261 237 241 244 246 252 250 249 251 253 252 258 258 254 257 267 270 271 273 273 274 274 274 275 275 276 277 278
224 222 226 226 225 224 227 226 224 227 232 224 223 233 251 262 291 238 236 244 248 251 255 255 252 251 253 254 260 251 259 266 271 274 276 277 277 277 277 277 278 279 279
224 226 228 229 227 225 228 226 226 229 232 233 225 231 246 268 269 278 248 241 248 254 259 256 255 255 255 252 257 276 269 269 273 277 280 281 281 280 281 280 280 280 280
224 226 228 231 232 228 228 227 224 226 228 234 231 226 234 243 247 257 270 268 259 251 254 254 256 258 255 252 261 276 272 268 272 277 282 284 284 284 285 285 284 284 285
225 227 229 230 233 232 230 230 227 226 226 231 233 229 227 231 234 239 253 265 270 266 260 248 252 257 262 260 269 283 276 276 281 283 285 286 286 286 286 286 288 288 289
233 229 226 230 234 235 234 231 228 229 229 231 233 234 233 237 243 244 250 260 266 269 258 245 245 255 265 272 283 289 277 286 289 291 292 291 289 290 290 290 290 291 291
257 248 233 232 234 237 237 232 231 233 233 233 238 239 238 240 243 245 248 256 265 264 254 249 229 238 264 276 307 287 283 299 296 297 298 298 296 296 296 294 293 294 295
311 288 254 240 242 241 240 234 230 231 231 232 235 238 240 243 244 245 246 244 250 263 262 250 243 222 249 265 292 282 285 306 292 292 299 303 301 300 300 298 297 298 298
327 331 294 264 255 254 250 246 237 233 232 235 235 235 237 241 242 243 244 245 244 254 263 264 258 257 243 255 273 277 280 286 271 284 296 298 298 300 300 299 298 298 299
324 326 320 301 283 269 262 255 253 241 234 236 236 236 241 240 240 241 243 247 248 250 258 268 269 267 258 262 278 282 283 283 280 277 290 295 297 301 304 301 300 300 299
321 319 314 316 309 298 282 258 256 251 243 244 243 241 244 242 241 244 243 245 248 249 255 265 268 265 260 271 279 281 286 287 287 294 293 295 298 300 298 296 299 302 303
324 322 313 307 301 296 287 270 260 262 253 249 249 248 249 248 249 248 249 251 253 256 255 259 266 269 268 278 283 282 286 287 290 297 291 286 290 295 295 295 297 301 302
326 321 310 299 294 290 285 285 277 268 268 261 255 254 252 247 249 251 253 257 256 253 252 253 259 262 263 276 274 279 283 286 288 296 291 295 293 290 291 293 296 299 301
327 318 309 305 299 291 293 293 288 281 273 268 259 254 256 260 261 261 258 257 253 253 253 252 256 258 256 266 268 276 276 290 286 290 299 298 299 296 296 294 297 303 306
335 332 324 314 308 307 316 304 289 275 271 266 266 258 251 252 265 263 262 262 258 253 255 256 257 258 265 267 277 278 282 289 287 312 304 293 291 285 291 294 302 302 302
331 330 325 322 318 320 327 318 303 285 271 262 262 258 248 247 251 264 263 254 260 264 254 257 258 263 267 265 263 262 265 270 275 301 297 282 287 283 291 289 295 296 300
322 319 318 317 311 314 325 319 304 278 275 270 267 265 256 252 255 264 273 276 287 284 267 255 257 268 280 286 273 268 271 276 281 285 284 278 291 293 299 287 282 289 300
312 311 309 306 303 306 321 319 316 282 272 274 275 271 262 256 258 230 226 246 277 314 8 13 338 329 332 327 306 274 283 281 283 284 297 283 299 307 293 280 287 295 305
303 306 299 296 295 301 316 321 317 286 278 281 282 275 265 268 271 235 232 224 237 268 309 346 358 356 346 348 345 301 269 262 281 280 311 303 299 316 298 280 294 300 304